Powrót do katalogu

STARLINK-11224

AktywnyŁącznośćVLEO
NORAD 60304·PAYLOAD·🇺🇸 United States

Wystrzelony Jul 28, 2024 z Vandenberg Space Force Base

Loading…

Następne Przeloty (najbliższe 24 godziny)

TLE

ŚwieżeSource: CelesTrak SupGP

Epoka: Sep 14, 2026, 21:25 UTC

1 60304C 24133D   26257.89284722 -.00033674  00000+0 -27737-3 0  2570
2 60304  53.1572 293.5644 0001188  77.4846 151.0574 15.69727376    12

Śledź STARLINK-11224 w czasie rzeczywistym z AllMySat

Download on the App Store